Wind_Speed
11 12 14 15 17 20 23 25 28 30 30 31 35 35 36 38 41 41 38 35 36 37 36 36 36 37 38 38 39 40 39 38 37 36 36 36 35 34
11 13 15 18 20 22 25 26 28 30 32 36 36 37 38 40 41 40 37 34 34 33 33 35 35 37 39 39 37 35 35 34 34 36 35 34 32 31
12 14 17 19 21 24 25 27 28 29 30 32 35 37 39 41 41 37 33 32 32 32 34 35 36 37 39 36 34 34 32 31 34 35 35 34 33 32
14 17 19 21 22 24 26 27 29 31 33 34 36 36 39 40 39 35 31 31 32 33 34 36 37 38 37 35 33 32 32 32 34 34 34 33 32 32
16 17 19 21 23 25 26 28 30 31 34 36 35 37 39 41 36 31 29 28 31 33 35 36 36 37 36 35 31 30 32 34 34 33 34 33 33 32
16 18 21 22 24 26 28 29 30 31 34 35 36 38 39 38 37 35 27 26 30 32 34 35 35 35 35 31 29 32 33 34 34 33 32 31 31 30
17 19 20 22 24 26 28 29 30 31 34 35 36 37 40 39 37 33 32 30 30 32 33 36 35 33 32 29 29 31 33 34 33 31 30 29 31 30
18 20 21 22 23 26 28 30 31 32 34 36 38 40 41 40 37 35 33 33 34 31 32 34 32 30 29 28 29 30 31 31 31 29 28 29 30 31
18 21 22 24 25 27 29 31 32 34 36 37 39 41 42 43 40 36 33 32 32 33 31 30 29 27 26 27 27 27 28 29 30 29 27 25 27 29
19 20 22 22 24 26 28 30 32 36 37 39 40 41 42 41 39 36 35 33 30 31 30 26 26 25 24 24 24 25 25 27 28 27 25 24 23 25
18 19 22 22 25 27 27 28 30 32 34 37 39 40 40 39 37 34 32 33 31 29 29 28 23 21 21 21 22 23 23 25 27 26 25 23 23 24
19 18 21 23 24 25 27 28 30 31 31 33 35 37 38 36 33 33 33 32 32 31 28 25 23 21 19 21 20 20 22 24 27 26 25 24 23 23
20 20 21 22 24 26 27 28 30 31 32 34 36 38 37 34 31 30 30 31 29 29 28 25 22 20 19 19 18 19 20 22 25 25 25 24 24 24
20 21 21 23 25 26 27 28 29 30 32 35 37 37 36 33 29 28 28 28 29 28 25 24 21 20 18 17 17 18 18 19 22 23 24 25 23 24
19 21 22 23 24 25 25 27 28 30 32 34 36 37 36 32 29 27 26 26 26 24 23 21 19 18 18 17 16 16 17 17 18 21 21 21 20 20
19 20 21 22 23 24 26 28 29 30 33 34 36 37 34 30 28 26 25 24 22 22 21 19 18 17 17 17 17 17 17 17 17 17 19 20 19 20
19 20 20 21 23 24 26 27 28 29 31 33 35 35 32 29 26 25 24 22 21 20 19 18 16 16 16 17 17 17 17 16 16 16 17 17 18 19
18 19 20 21 22 23 24 25 26 28 30 32 33 34 31 27 24 24 22 21 20 19 18 17 17 18 17 18 18 18 17 16 15 15 16 16 17 19
18 19 19 20 21 22 23 24 25 27 29 31 32 32 30 26 24 22 21 19 19 17 17 17 18 18 18 17 17 17 17 16 16 15 14 15 16 18
18 18 18 19 20 21 22 23 25 26 28 30 31 31 29 25 23 21 19 18 17 16 17 17 18 18 18 17 17 18 18 17 16 15 15 16 18 19
17 17 18 18 20 21 21 22 23 25 26 28 30 30 27 24 22 20 18 16 16 16 16 16 16 17 17 17 17 16 17 16 16 16 16 17 18 18
15 16 16 17 19 20 20 21 22 24 25 27 29 29 27 24 20 19 17 15 14 14 15 15 16 15 15 16 16 17 17 17 17 17 17 17 16 16
15 15 15 16 18 20 20 19 20 22 24 26 27 27 26 23 20 17 15 14 14 13 13 13 14 14 14 14 15 16 17 16 16 17 16 16 16 16
Wind_Direction
335 335 334 337 341 342 341 344 344 343 344 344 341 339 339 337 338 337 336 338 336 336 335 332 338 339 339 338 335 334 334 334 333 333 332 327 319 313
334 337 338 343 345 345 347 345 344 344 345 342 342 340 339 341 340 339 337 338 336 337 334 337 339 340 340 341 338 338 337 337 339 341 341 339 335 331
336 341 345 345 345 347 345 343 342 342 344 343 340 339 341 341 340 338 334 335 335 337 338 338 340 341 340 341 340 340 341 341 342 342 343 342 340 337
343 346 344 344 344 345 344 343 342 342 341 342 342 341 340 341 340 337 335 333 335 338 338 338 341 341 344 343 342 343 345 346 346 345 343 342 340 338
343 342 343 343 343 343 344 344 343 341 341 342 342 341 342 342 340 338 332 332 335 339 336 340 340 343 345 343 345 346 348 351 349 347 346 346 345 343
339 342 342 342 342 344 344 344 342 341 341 340 341 342 343 343 341 337 332 332 335 340 340 340 343 345 345 347 350 352 353 353 353 354 355 356 357 359
338 339 340 341 343 342 342 342 341 341 339 341 341 342 343 344 341 341 337 337 339 339 341 342 347 346 348 352 354 357 357 358 2 6 8 10 9 9
334 335 340 340 340 342 342 342 341 341 342 342 342 344 345 344 343 342 340 338 338 341 345 345 347 348 350 354 356 358 2 6 11 15 17 17 23 32
332 334 337 341 340 341 342 342 341 343 343 342 344 344 346 345 344 342 340 339 339 342 348 348 348 349 351 354 357 1 7 14 15 16 20 26 33 38
327 331 335 337 338 341 342 342 343 344 343 344 345 345 344 342 342 340 340 341 341 342 347 352 349 351 353 353 0 6 12 18 17 17 21 21 25 28
323 332 330 335 338 341 341 342 344 342 342 343 344 344 344 343 339 338 339 340 343 347 350 352 355 353 349 356 7 10 15 20 17 13 11 12 15 17
320 330 330 333 337 338 341 343 343 341 342 343 343 344 344 343 341 341 341 342 342 347 353 354 353 353 1 1 9 15 16 21 19 16 17 19 23 25
319 327 328 332 335 338 341 343 342 342 343 344 346 347 346 345 345 344 342 341 346 350 351 354 355 358 360 4 7 15 15 23 22 23 27 29 30 31
318 324 329 331 334 339 342 339 341 341 345 347 347 346 347 348 348 346 345 344 348 350 352 354 355 360 4 5 10 13 11 19 24 25 26 23 25 31
317 322 326 330 334 337 336 339 342 345 346 347 347 348 349 350 351 350 348 346 348 354 356 357 360 1 4 3 6 13 8 11 21 24 25 25 28 29
314 320 324 326 330 333 338 343 345 345 346 348 349 349 351 351 350 351 350 350 356 357 1 4 5 9 6 2 4 6 4 4 5 11 18 18 18 15
312 316 320 326 331 336 341 342 342 345 347 348 349 349 352 352 350 351 352 352 0 2 5 10 10 8 3 2 360 358 357 357 355 358 3 5 8 8
308 317 323 327 331 336 339 339 342 345 347 348 349 349 352 353 351 352 352 354 4 6 7 7 6 5 3 359 358 356 357 356 355 356 354 355 359 4
310 317 321 325 330 333 337 340 342 344 347 348 350 351 353 352 352 353 353 358 5 6 4 4 7 6 5 6 6 10 7 5 4 1 359 359 4 10
307 314 318 323 328 333 337 339 341 345 347 348 350 351 352 353 353 353 353 1 6 5 5 6 7 10 11 15 17 14 15 13 10 12 14 18 15 13
304 311 317 322 327 334 337 338 341 344 347 348 350 351 353 353 353 353 354 2 6 5 6 7 10 13 14 17 18 21 19 21 22 23 26 22 17 14
297 305 314 321 328 332 335 336 341 344 347 349 350 351 353 353 353 353 353 2 5 4 7 8 10 12 15 21 24 27 29 27 27 27 27 25 20 19
294 304 312 320 328 331 332 336 342 346 348 349 350 351 352 353 352 352 351 360 2 2 4 4 7 12 14 22 25 28 29 27 26 25 23 22 22 24
Height
3149 3148 3147 3145 3141 3138 3134 3129 3124 3120 3117 3113 3106 3100 3094 3086 3079 3071 3064 3057 3049 3043 3036 3029 3021 3014 3007 3000 2992 2984 2977 2970 2963 2956 2948 2940 2933 2927
3147 3146 3145 3141 3138 3134 3129 3125 3121 3117 3112 3105 3101 3093 3087 3080 3072 3064 3058 3052 3046 3040 3033 3025 3018 3010 3003 2995 2988 2981 2973 2966 2959 2951 2943 2936 2928 2921
3146 3144 3141 3138 3134 3130 3127 3123 3119 3115 3111 3105 3097 3089 3082 3074 3068 3061 3054 3048 3043 3036 3029 3021 3014 3007 2999 2991 2984 2977 2970 2963 2956 2948 2939 2931 2924 2916
3143 3140 3138 3135 3132 3128 3124 3120 3115 3110 3105 3100 3092 3086 3078 3071 3063 3056 3050 3044 3039 3032 3024 3017 3009 3002 2995 2988 2981 2974 2967 2960 2952 2944 2936 2929 2921 2913
3140 3139 3136 3133 3129 3125 3121 3116 3111 3106 3100 3093 3088 3081 3074 3066 3060 3054 3047 3042 3034 3028 3021 3013 3006 2998 2991 2984 2978 2972 2964 2956 2949 2941 2933 2925 2918 2910
3139 3136 3133 3130 3126 3122 3117 3112 3107 3102 3096 3091 3084 3077 3070 3063 3055 3048 3045 3039 3031 3025 3017 3009 3002 2995 2989 2982 2976 2969 2962 2954 2947 2939 2931 2924 2917 2909
3136 3134 3131 3127 3123 3118 3114 3109 3104 3099 3093 3086 3080 3073 3066 3059 3051 3044 3037 3032 3027 3021 3013 3005 2998 2992 2986 2980 2974 2968 2961 2953 2946 2939 2932 2926 2919 2911
3134 3131 3128 3125 3121 3116 3111 3105 3101 3095 3089 3082 3074 3067 3060 3053 3045 3039 3033 3027 3021 3019 3010 3002 2996 2990 2984 2979 2973 2967 2961 2954 2947 2941 2935 2929 2922 2915
3131 3128 3124 3121 3117 3112 3107 3101 3096 3090 3083 3077 3071 3063 3055 3047 3040 3035 3031 3025 3018 3012 3008 3001 2994 2989 2983 2979 2974 2968 2961 2955 2949 2944 2938 2933 2927 2921
3128 3126 3122 3119 3114 3110 3104 3098 3092 3084 3078 3072 3065 3059 3052 3045 3037 3031 3026 3022 3018 3011 3005 3000 2993 2988 2984 2979 2974 2968 2962 2957 2952 2946 2941 2936 2931 2925
3126 3122 3119 3115 3111 3106 3102 3096 3091 3085 3078 3071 3064 3058 3050 3042 3035 3030 3024 3018 3014 3009 3002 2997 2993 2988 2984 2979 2974 2969 2964 2959 2954 2949 2944 2939 2934 2929
3122 3120 3115 3112 3107 3103 3098 3093 3089 3084 3078 3071 3065 3057 3048 3041 3033 3026 3020 3016 3010 3005 3001 2997 2991 2988 2984 2979 2975 2971 2966 2961 2956 2951 2946 2941 2937 2932
3117 3115 3112 3107 3104 3099 3095 3090 3085 3080 3074 3067 3060 3053 3045 3038 3031 3025 3019 3013 3009 3003 2998 2994 2990 2986 2982 2979 2975 2971 2967 2963 2958 2954 2949 2945 2940 2936
3113 3110 3107 3103 3099 3095 3091 3087 3082 3077 3070 3063 3056 3050 3043 3035 3029 3023 3018 3012 3007 3002 2997 2993 2989 2985 2982 2979 2976 2972 2969 2964 2960 2957 2952 2948 2944 2939
3109 3106 3103 3099 3095 3092 3089 3084 3079 3073 3067 3060 3054 3047 3039 3032 3027 3022 3017 3012 3006 3002 2998 2993 2989 2985 2982 2979 2976 2973 2970 2966 2962 2959 2955 2952 2948 2944
3105 3102 3099 3096 3093 3089 3085 3080 3074 3069 3063 3057 3051 3044 3037 3031 3026 3021 3016 3012 3006 3001 2998 2993 2990 2987 2984 2981 2977 2973 2970 2967 2963 2960 2956 2953 2950 2946
3101 3099 3096 3093 3089 3085 3080 3076 3072 3066 3061 3055 3049 3043 3036 3030 3025 3020 3015 3011 3006 3001 2998 2995 2991 2988 2985 2981 2978 2974 2971 2967 2964 2961 2958 2955 2951 2947
3097 3094 3091 3088 3085 3082 3078 3074 3069 3064 3059 3053 3047 3041 3034 3029 3024 3019 3015 3010 3005 3001 2998 2995 2992 2988 2986 2982 2978 2974 2971 2967 2964 2961 2958 2955 2952 2948
3092 3090 3087 3085 3082 3079 3075 3071 3066 3062 3057 3051 3045 3039 3033 3027 3023 3018 3014 3009 3005 3002 2999 2996 2992 2989 2986 2982 2979 2975 2971 2968 2965 2962 2959 2956 2952 2949
3087 3085 3083 3081 3079 3075 3072 3068 3063 3059 3054 3049 3043 3037 3031 3026 3022 3018 3014 3009 3005 3002 2999 2996 2993 2989 2986 2983 2979 2976 2972 2969 2966 2963 2960 2957 2953 2950
3083 3081 3079 3077 3075 3071 3068 3065 3061 3057 3052 3048 3042 3036 3030 3025 3021 3017 3013 3009 3006 3003 3000 2997 2994 2991 2987 2984 2981 2978 2974 2971 2968 2965 2962 2959 2956 2952
3079 3078 3076 3074 3071 3068 3065 3061 3058 3054 3050 3045 3040 3034 3029 3024 3020 3016 3013 3009 3006 3004 3000 2997 2995 2992 2989 2986 2982 2979 2976 2973 2970 2967 2964 2961 2958 2955
3074 3073 3071 3070 3067 3065 3061 3058 3055 3051 3047 3043 3038 3033 3028 3023 3019 3016 3013 3009 3006 3004 3001 2998 2996 2993 2990 2987 2984 2981 2978 2975 2972 2969 2967 2963 2960 2957